Weather History for Cook, MN

Change the Weather History Date:

Friday, June 7, 2013

  Actual Average Record
Temperature  
Mean Temperature 48 °F -  
Max Temperature 60 °F 67 °F 91 °F (2011)
Min Temperature 35 °F 44 °F 35 °F (2013)
Degree Days  
Heating Degree Days 18    
Moisture  
Dew Point 42 °F    
Average Humidity 74    
Maximum Humidity 100    
Minimum Humidity 48    
Precipitation  
Precipitation 0.00 in - - ()
Sea Level Pressure  
Sea Level Pressure 30.02 in    
Wind  
Wind Speed 0 mph (South)    
Max Wind Speed 6 mph    
Max Gust Speed -    
Visibility 10 miles    
Events      
Averages and records for this station are not official NWS values.
T = Trace of Precipitation, MM = Missing Value Source: NWS Daily Summary

Daily Weather History Graph

Daily Weather History Graph

Search for Another Location

Airport:

Trip Planner

Search our weather history database for the weather conditions in past years. The results will help you decide how hot, cold, wet, or windy it might be!

Date:

Astronomy

Jun. 07, 2013 Rise Set
Actual Time 5:13 AM CDT 9:06 PM CDT
Civil Twilight 4:32 AM CDT 9:47 PM CDT
Nautical Twilight 3:37 AM CDT 10:42 PM CDT
Astronomical Twilight 2:12 AM CDT 12:08 AM CDT
Moon 4:41 AM CDT (6/7) 8:16 PM CDT (6/7)
Length of Visible Light 17h 14m
Length of Day
15h 53m
Waning Crescent, 1% of the Moon is Illuminated
Jun 7
Waning Crescent
Jun 8
New
Jun 16
First Quarter
Jun 23
Full
Jun 29
Last Quarter

Hourly Weather History & Observations

Time (CDT) Temp. Dew Point Humidity Pressure Visibility Wind Dir Wind Speed Gust Speed Precip Events Conditions
12:17 AM 46.4 °F 44.6 °F 93% 30.07 in 10.0 mi Calm Calm - N/A   Clear
12:36 AM 46.4 °F 44.6 °F 93% 30.07 in 10.0 mi Calm Calm - N/A   Clear
12:56 AM 44.6 °F 44.6 °F 100% 30.06 in 10.0 mi Calm Calm - N/A   Clear
1:17 AM 44.6 °F 42.8 °F 93% 30.06 in 10.0 mi Calm Calm - N/A   Clear
1:36 AM 44.6 °F 42.8 °F 93% 30.06 in 10.0 mi Calm Calm - N/A   Clear
1:56 AM 42.8 °F 42.8 °F 100% 30.06 in 2.5 mi Calm Calm - N/A   Clear
2:16 AM 42.8 °F 41.0 °F 93% 30.06 in 10.0 mi Calm Calm - N/A   Clear
2:36 AM 41.0 °F 39.2 °F 93% 30.05 in 10.0 mi Calm Calm - N/A   Clear
2:57 AM 39.2 °F 39.2 °F 100% 30.05 in 7.0 mi Calm Calm - N/A   Clear
3:16 AM 39.2 °F 39.2 °F 100% 30.05 in 5.0 mi Calm Calm - N/A   Clear
3:36 AM 37.4 °F 37.4 °F 100% 30.05 in 10.0 mi Calm Calm - N/A   Clear
3:57 AM 37.4 °F 37.4 °F 100% 30.05 in 10.0 mi Calm Calm - N/A   Clear
4:16 AM 37.4 °F 37.4 °F 100% 30.05 in 10.0 mi Calm Calm - N/A   Scattered Clouds
4:36 AM 37.4 °F 35.6 °F 93% 30.05 in 10.0 mi Calm Calm - N/A   Clear
4:57 AM 35.6 °F 35.6 °F 100% 30.05 in 10.0 mi Calm Calm - N/A   Clear
5:16 AM 35.6 °F 35.6 °F 100% 30.05 in 10.0 mi Calm Calm - N/A   Clear
5:37 AM 35.6 °F 35.6 °F 100% 30.05 in 10.0 mi Calm Calm - N/A   Clear
5:57 AM 35.6 °F 35.6 °F 100% 30.05 in 10.0 mi Calm Calm - N/A   Clear
6:16 AM 37.4 °F 35.6 °F 93% 30.06 in 10.0 mi Calm Calm - N/A   Clear
6:37 AM 39.2 °F 37.4 °F 93% 30.06 in 10.0 mi Calm Calm - N/A   Clear
6:57 AM 42.8 °F 41.0 °F 93% 30.07 in 10.0 mi Calm Calm - N/A   Mostly Cloudy
7:16 AM 44.6 °F 42.8 °F 93% 30.07 in 10.0 mi Calm Calm - N/A   Overcast
7:37 AM 48.2 °F 44.6 °F 87% 30.07 in 10.0 mi Calm Calm - N/A   Overcast
7:57 AM 48.2 °F 44.6 °F 87% 30.07 in 10.0 mi Calm Calm - N/A   Overcast
8:16 AM 50.0 °F 44.6 °F 82% 30.07 in 10.0 mi Calm Calm - N/A   Overcast
8:37 AM 51.8 °F 44.6 °F 76% 30.07 in 10.0 mi Calm Calm - N/A   Overcast
8:56 AM 51.8 °F 42.8 °F 71% 30.07 in 10.0 mi Calm Calm - N/A   Overcast
9:16 AM 55.4 °F 44.6 °F 67% 30.07 in 10.0 mi Calm Calm - N/A   Overcast
9:37 AM 55.4 °F 42.8 °F 63% 30.07 in 10.0 mi Calm Calm - N/A   Mostly Cloudy
9:56 AM 55.4 °F 44.6 °F 67% 30.07 in 10.0 mi Calm Calm - N/A   Mostly Cloudy
10:17 AM 55.4 °F 44.6 °F 67% 30.07 in 10.0 mi Calm Calm - N/A   Overcast
10:36 AM 57.2 °F 44.6 °F 63% 30.07 in 10.0 mi Calm Calm - N/A   Overcast
10:57 AM 57.2 °F 42.8 °F 59% 30.06 in 10.0 mi Calm Calm - N/A   Overcast
11:17 AM 57.2 °F 42.8 °F 59% 30.06 in 10.0 mi Calm Calm - N/A   Overcast
11:36 AM 57.2 °F 39.2 °F 51% 30.06 in 10.0 mi SE 3.5 mph - N/A   Overcast
11:57 AM 57.2 °F 41.0 °F 55% 30.05 in 10.0 mi Calm Calm - N/A   Overcast
12:17 PM 57.2 °F 39.2 °F 51% 30.05 in 10.0 mi SE 3.5 mph - N/A   Overcast
12:36 PM 57.2 °F 39.2 °F 51% 30.04 in 10.0 mi SSE 5.8 mph - N/A   Overcast
12:56 PM 57.2 °F 39.2 °F 51% 30.04 in 10.0 mi South 4.6 mph - N/A   Mostly Cloudy
1:17 PM 59.0 °F 39.2 °F 48% 30.03 in 10.0 mi SSE 5.8 mph - N/A   Mostly Cloudy
1:36 PM 59.0 °F 39.2 °F 48% 30.03 in 10.0 mi SE 3.5 mph - N/A   Mostly Cloudy
1:56 PM 59.0 °F 41.0 °F 51% 30.02 in 10.0 mi Calm Calm - N/A   Scattered Clouds
2:16 PM 59.0 °F 39.2 °F 48% 30.02 in 10.0 mi SSW 5.8 mph - N/A   Mostly Cloudy
2:36 PM 59.0 °F 39.2 °F 48% 30.02 in 10.0 mi Calm Calm - N/A   Overcast
2:57 PM 59.0 °F 39.2 °F 48% 30.02 in 10.0 mi SSW 3.5 mph - N/A   Mostly Cloudy
3:16 PM 60.8 °F 41.0 °F 48% 30.01 in 10.0 mi Calm Calm - N/A   Mostly Cloudy
3:36 PM 60.8 °F 42.8 °F 52% 30.00 in 10.0 mi SSW 4.6 mph - N/A   Mostly Cloudy
3:57 PM 60.8 °F 41.0 °F 48% 30.00 in 10.0 mi Calm Calm - N/A   Mostly Cloudy
4:16 PM 60.8 °F 42.8 °F 52% 30.00 in 10.0 mi SSW 3.5 mph - N/A   Mostly Cloudy
4:36 PM 60.8 °F 42.8 °F 52% 29.99 in 10.0 mi Calm Calm - N/A   Mostly Cloudy
4:57 PM 60.8 °F 42.8 °F 52% 29.99 in 10.0 mi Calm Calm - N/A   Mostly Cloudy
5:16 PM 60.8 °F 42.8 °F 52% 29.98 in 10.0 mi Calm Calm - N/A   Mostly Cloudy
5:37 PM 60.8 °F 42.8 °F 52% 29.98 in 10.0 mi Calm Calm - N/A   Mostly Cloudy
5:57 PM 60.8 °F 42.8 °F 52% 29.98 in 10.0 mi Calm Calm - N/A   Overcast
6:16 PM 60.8 °F 44.6 °F 55% 29.97 in 10.0 mi Calm Calm - N/A   Overcast
6:37 PM 60.8 °F 42.8 °F 52% 29.97 in 10.0 mi Calm Calm - N/A   Overcast
6:57 PM 60.8 °F 42.8 °F 52% 29.97 in 10.0 mi Calm Calm - N/A   Overcast
7:16 PM 59.0 °F 44.6 °F 59% 29.97 in 10.0 mi Calm Calm - N/A   Overcast
7:37 PM 59.0 °F 46.4 °F 63% 29.97 in 10.0 mi Calm Calm - N/A   Overcast
7:57 PM 57.2 °F 46.4 °F 67% 29.97 in 10.0 mi Calm Calm - N/A   Overcast
8:16 PM 57.2 °F 46.4 °F 67% 29.97 in 10.0 mi Calm Calm - N/A   Overcast
8:37 PM 57.2 °F 46.4 °F 67% 29.97 in 10.0 mi Calm Calm - N/A   Overcast
8:56 PM 55.4 °F 46.4 °F 72% 29.96 in 10.0 mi Calm Calm - N/A   Overcast
9:16 PM 55.4 °F 48.2 °F 77% 29.97 in 10.0 mi Calm Calm - N/A   Overcast
9:37 PM 53.6 °F 46.4 °F 77% 29.97 in 10.0 mi Calm Calm - N/A   Overcast
9:56 PM 53.6 °F 46.4 °F 77% 29.97 in 10.0 mi Calm Calm - N/A   Overcast
10:16 PM 51.8 °F 46.4 °F 82% 29.97 in 10.0 mi Calm Calm - N/A   Mostly Cloudy
10:37 PM 51.8 °F 44.6 °F 76% 29.96 in 10.0 mi Calm Calm - N/A   Scattered Clouds
10:56 PM 48.2 °F 46.4 °F 93% 29.96 in 10.0 mi Calm Calm - N/A   Clear
11:17 PM 46.4 °F 44.6 °F 93% 29.95 in 10.0 mi Calm Calm - N/A   Clear
11:36 PM 46.4 °F 44.6 °F 93% 29.95 in 10.0 mi Calm Calm - N/A   Clear
11:56 PM 44.6 °F 44.6 °F 100% 29.95 in 10.0 mi Calm Calm - N/A   Clear